Regional Weather Roundup
Issued by NWS Kansas City/Pleasant Hill, MO

Home | Current Version | Previous Version | Text Only | Print | Product List | Glossary On
Versions: 1 2 3 4 5 6 7 8 9 10 11 12 13 14 15 16 17 18 19 20 21 22 23 24 25 26 27 28 29 30 31 32 33 34 35 36 37 38 39 40 41 42 43 44 45 46 47 48 49 50
144
ASUS43 KEAX 261810
RWREAX

WEATHER ROUNDUP FOR EASTERN KANSAS AND NORTHWEST MISSOURI
NATIONAL WEATHER SERVICE KANSAS CITY/PLEASANT HILL MO
100 PM CDT THU MAY 26 2016

KSZ040-057-103>105-MOZ028-029-037-043-261900-
...KANSAS CITY METROPOLITAN AREA...

CITY           SKY/WX    TMP DP  RH WIND       PRES   REMARKS
K.C. INTL      CLOUDY    73  65  75 SE10      29.85F
6HR MIN TEMP:  64; 6HR MAX TEMP:  78; 6HR PCP:  0.04;

K.C. DOWNTOWN  TSTM      71  68  90 NE10      29.86R VSB 1/4
6HR MIN TEMP:  65; 6HR MAX TEMP:  76; 6HR PCP:  0.54;

LEES SUMMIT    CLOUDY    80  69  69 E13       29.88F
6HR MIN TEMP:  64; 6HR MAX TEMP:  81;

OLATHE - IXD   MOSUNNY   81  72  74 SE15      29.86F
6HR MIN TEMP:  64; 6HR MAX TEMP:  81; 6HR PCP: TRACE;

OLATHE - OJC   CLOUDY    79  71  76 SE13      29.86F
6HR MIN TEMP:  62; 6HR MAX TEMP:  79;

LAWRENCE       MOSUNNY   82  73  74 SE22      29.83F

$$

MOZ001>008-011>017-020>025-030>033-038>040-044>046-053-054-261900-
...NORTHERN AND CENTRAL MISSOURI...

CITY           SKY/WX    TMP DP  RH WIND       PRES   REMARKS
ST. JOSEPH     TSTM      70  67  90 E3        29.84F
6HR MIN TEMP:  65; 6HR MAX TEMP:  71; 6HR PCP:  0.13;

MOSBY          CLOUDY    72  63  73 SE7       29.86F
WARRENSBURG    MOSUNNY   82  68  61 CALM      29.88F
WHITEMAN AFB   MOSUNNY   82  69  65 S7        29.89F
6HR MIN TEMP:  63; 6HR MAX TEMP:  82; 6HR PCP:  0.01;

CLINTON        SUNNY     82  70  65 SE13      29.89F
SEDALIA        SUNNY     84  65  52 SW10      29.92F THUNDER
6HR MIN TEMP:  65; 6HR MAX TEMP:  84; 6HR PCP:  0.08;

WARSAW         NOT AVBL
CHILLICOTHE      N/A     76  65  68 E8        29.86F
6HR MIN TEMP:  66; 6HR MAX TEMP:  78;

KIRKSVILLE     CLOUDY    78  64  61 S3        29.91F
6HR MIN TEMP:  69; 6HR MAX TEMP:  80;


$$

MOZ041-047>049-056>058-063>065-088>090-097-261900-
...EASTERN AND SOUTHERN MISSOURI...

CITY           SKY/WX    TMP DP  RH WIND       PRES   REMARKS
ST. LOUIS INTL PTSUNNY   75  64  68 SE21G30   29.94S
6HR MIN TEMP:  67; 6HR MAX TEMP:  76; 6HR PCP:  0.49;

SPIRIT OF STL  MOSUNNY  N/A N/A N/A S14       29.90F
COLUMBIA       SUNNY     84  68  58 SW5       29.92R
JEFFERSON CITY SUNNY     83  68  60 S8        29.91R
ROLLA          CLOUDY    77  69  76 SW7       29.92R
SPRINGFIELD    MOSUNNY   85  70  60 S15       29.91F
BRANSON        PTSUNNY   84  72  65 S7        29.96F
JOPLIN         PTSUNNY   86  72  62 S22G28    29.89F HX  92
WEST PLAINS    PTSUNNY   84  72  67 S8        29.97F

$$

IAZ060-094-KSZ022-034>040-054-083-096-NEZ052-066-093-261900-
...KANSAS...SOUTHEAST NEBRASKA AND IOWA...

CITY           SKY/WX    TMP DP  RH WIND       PRES   REMARKS
TOPEKA         MOSUNNY   81  73  76 SE18G29   29.81F
6HR MIN TEMP:  67; 6HR MAX TEMP:  81; 6HR PCP:  0.11;

MANHATTAN      MOSUNNY   83  73  72 SE12G20   29.76F
EMPORIA        CLOUDY    82  72  71 S23G29    29.81S
CHANUTE        PTSUNNY   84  72  67 S20G29    29.84F
WICHITA        PTSUNNY   82  72  71 S15       29.76F
OMAHA          MOSUNNY   82  57  42 E10       29.83F
LINCOLN        SUNNY     82  63  52 E12       29.83S
FALLS CITY     MOSUNNY   79  68  69 SE13G21   29.82F
LAMONI         CLOUDY    74  66  76 VRB3      29.87F
DES MOINES     CLOUDY    79  64  60 S6        29.88F

$$





USA.gov is the U.S. government's official web portal to all federal, state and local government web resources and services.